Location: Dannhausen
(51.8650°N, 10.1026°E)
Time: 07:17:06
(UTC+00:00)

SPOT 5 - Pass Details

Date: 09 April 2020
Orbit: 624 x 814 km, 98.3° (Epoch: 02 June)

Event Time Altitude Azimuth Distance (km) Brightness Sun altitude
Exits shadow 20:31:37 49° 114° (ESE) 815 2.7 -20.0°
Maximum altitude 20:32:25 58° 71° (ENE) 732 2.7 -20.1°
Drops below altitude 10° 20:36:42 10° 352° (N) 2,015 5.9 -20.6°
Sets 20:38:56 0° 348° (NNW) 2,937 7.0 -20.8°
